"read_dt","SO2 (ppb)","flags","PMT voltage (V)","lamp voltage (V)","lamp intensity (Hz)","internal temp (C)","react chamber temp (C)","sample flow (l/min)","pres (mmHg)","SO2 bkg (ppb)","SO2 coefficient"
2016-06-18 00:00:00,2066E-3,5C000400,-0724,0829,12222,027.8,045.4,0.255,758.9,01.16,0.508
2016-06-18 00:01:00,1939E-3,5C000400,-0724,0830,12162,027.8,045.4,0.255,758.8,01.16,0.508
2016-06-18 00:02:00,2071E-3,5C000400,-0724,0829,12327,027.8,045.4,0.255,758.8,01.16,0.508
2016-06-18 00:03:00,2050E-3,5C000400,-0724,0828,12052,027.8,045.4,0.256,758.8,01.16,0.508
2016-06-18 00:04:00,2105E-3,5C000400,-0724,0829,12147,027.8,045.4,0.255,758.8,01.16,0.508
2016-06-18 00:05:00,1904E-3,5C000400,-0724,0830,12212,027.8,045.4,0.256,758.8,01.16,0.508
2016-06-18 00:06:00,2126E-3,5C000400,-0724,0830,12066,027.8,045.4,0.255,758.8,01.16,0.508
2016-06-18 00:07:00,2014E-3,5C000400,-0724,0829,12237,027.8,045.4,0.255,758.8,01.16,0.508
2016-06-18 00:08:00,2036E-3,5C000400,-0724,0829,12208,027.9,045.4,0.255,758.8,01.16,0.508
2016-06-18 00:09:00,2108E-3,5C000400,-0724,0830,12206,027.9,045.4,0.255,758.8,01.16,0.508
2016-06-18 00:10:00,1992E-3,5C000400,-0724,0831,12228,027.9,045.4,0.255,758.8,01.16,0.508
2016-06-18 00:11:00,2080E-3,5C000400,-0724,0829,12199,027.9,045.4,0.255,758.8,01.16,0.508
2016-06-18 00:12:00,2104E-3,5C000400,-0724,0830,12304,027.9,045.4,0.256,758.8,01.16,0.508
2016-06-18 00:13:00,2012E-3,5C000400,-0724,0829,12264,027.9,045.4,0.255,758.8,01.16,0.508
2016-06-18 00:14:00,2049E-3,5C000400,-0724,0830,12159,027.9,045.4,0.255,758.9,01.16,0.508
2016-06-18 00:15:00,2078E-3,5C000400,-0724,0829,12274,027.9,045.4,0.255,758.8,01.16,0.508
2016-06-18 00:16:00,1912E-3,5C000400,-0724,0829,12149,027.9,045.4,0.255,758.8,01.16,0.508
2016-06-18 00:17:00,2051E-3,5C000400,-0724,0829,11991,027.9,045.4,0.255,758.9,01.16,0.508
2016-06-18 00:18:00,1916E-3,5C000400,-0724,0830,12284,027.9,045.4,0.255,758.9,01.16,0.508
2016-06-18 00:19:00,2017E-3,5C000400,-0724,0830,12167,027.9,045.4,0.255,758.9,01.16,0.508
2016-06-18 00:20:00,1829E-3,5C000400,-0724,0828,12304,027.9,045.4,0.255,758.9,01.16,0.508
2016-06-18 00:21:00,1967E-3,5C000400,-0724,0830,12217,027.9,045.4,0.255,758.9,01.16,0.508
2016-06-18 00:22:00,2018E-3,5C000400,-0724,0830,12187,027.9,045.4,0.255,758.9,01.16,0.508
2016-06-18 00:23:00,2068E-3,5C000400,-0724,0829,12174,028.0,045.4,0.255,758.9,01.16,0.508
2016-06-18 00:24:00,1963E-3,5C000400,-0724,0830,12353,028.0,045.4,0.255,758.9,01.16,0.508
2016-06-18 00:25:00,2060E-3,5C000400,-0724,0831,12271,028.0,045.4,0.255,758.9,01.16,0.508
2016-06-18 00:26:00,2055E-3,5C000400,-0724,0829,12125,028.0,045.4,0.255,758.9,01.16,0.508
2016-06-18 00:27:00,2050E-3,5C000400,-0724,0829,12453,028.0,045.4,0.255,758.9,01.16,0.508
2016-06-18 00:28:00,2053E-3,5C000400,-0724,0829,12299,028.0,045.4,0.255,758.9,01.16,0.508
2016-06-18 00:29:00,2158E-3,5C000400,-0724,0829,12193,028.0,045.4,0.255,758.9,01.16,0.508
2016-06-18 00:30:00,1987E-3,5C000400,-0724,0829,12051,028.0,045.4,0.255,758.9,01.16,0.508
2016-06-18 00:31:00,2042E-3,5C000400,-0724,0828,12216,028.0,045.4,0.255,758.9,01.16,0.508
2016-06-18 00:32:00,2060E-3,5C000400,-0724,0829,12264,028.0,045.4,0.255,758.9,01.16,0.508
2016-06-18 00:33:00,2108E-3,5C000400,-0724,0829,12230,028.0,045.4,0.255,758.8,01.16,0.508
2016-06-18 00:34:00,1907E-3,5C000400,-0724,0830,12140,028.1,045.4,0.255,758.9,01.16,0.508
2016-06-18 00:35:00,1990E-3,5C000400,-0724,0828,12116,028.0,045.4,0.255,758.9,01.16,0.508
2016-06-18 00:36:00,1914E-3,5C000400,-0724,0828,12118,028.0,045.4,0.255,758.9,01.16,0.508
2016-06-18 00:37:00,1933E-3,5C000400,-0724,0829,12195,028.1,045.4,0.255,758.9,01.16,0.508
2016-06-18 00:38:00,1967E-3,5C000400,-0724,0829,12247,028.0,045.4,0.255,758.9,01.16,0.508
2016-06-18 00:39:00,1960E-3,5C000400,-0724,0829,12143,028.1,045.4,0.255,758.9,01.16,0.508
2016-06-18 00:40:00,1922E-3,5C000400,-0724,0828,12228,028.1,045.4,0.255,758.9,01.16,0.508
2016-06-18 00:41:00,2001E-3,5C000400,-0724,0828,12088,028.1,045.4,0.255,758.9,01.16,0.508
2016-06-18 00:42:00,2007E-3,5C000400,-0724,0828,11948,028.1,045.4,0.255,758.8,01.16,0.508
2016-06-18 00:43:00,2013E-3,5C000400,-0724,0827,12328,028.1,045.4,0.255,758.8,01.16,0.508
2016-06-18 00:44:00,2054E-3,5C000400,-0724,0828,12186,028.1,045.4,0.255,758.9,01.16,0.508
2016-06-18 00:45:00,2105E-3,5C000400,-0724,0829,12175,028.1,045.5,0.255,758.9,01.16,0.508
2016-06-18 00:46:00,1942E-3,5C000400,-0724,0829,12231,028.1,045.4,0.255,758.9,01.16,0.508
2016-06-18 00:47:00,2051E-3,5C000400,-0724,0829,12216,028.1,045.4,0.255,758.8,01.16,0.508
2016-06-18 00:48:00,2032E-3,5C000400,-0724,0828,12122,028.2,045.4,0.255,758.8,01.16,0.508
2016-06-18 00:49:00,2060E-3,5C000400,-0724,0828,12353,028.1,045.4,0.255,758.8,01.16,0.508
2016-06-18 00:50:00,1878E-3,5C000400,-0724,0829,11900,028.1,045.4,0.255,758.8,01.16,0.508
2016-06-18 00:51:00,1941E-3,5C000400,-0724,0829,12144,028.1,045.4,0.255,758.9,01.16,0.508
2016-06-18 00:52:00,1974E-3,5C000400,-0724,0829,12187,028.2,045.4,0.255,758.9,01.16,0.508
2016-06-18 00:53:00,1926E-3,5C000400,-0724,0830,12120,028.2,045.4,0.255,758.8,01.16,0.508
2016-06-18 00:54:00,1906E-3,5C000400,-0724,0829,12296,028.2,045.4,0.255,758.9,01.16,0.508
2016-06-18 00:55:00,1852E-3,5C000400,-0724,0829,12172,028.2,045.4,0.254,758.9,01.16,0.508
2016-06-18 00:56:00,2129E-3,5C000400,-0724,0829,12197,028.2,045.4,0.255,758.9,01.16,0.508
2016-06-18 00:57:00,2018E-3,5C000400,-0724,0828,12226,028.2,045.4,0.255,758.8,01.16,0.508
2016-06-18 00:58:00,1997E-3,5C000400,-0724,0829,11077,028.2,045.5,0.255,758.8,01.16,0.508
2016-06-18 00:59:00,1952E-3,5C000400,-0724,0829,12054,028.2,045.5,0.255,758.9,01.16,0.508
2016-06-18 01:00:00,2057E-3,5C000400,-0724,0830,12353,028.2,045.5,0.255,758.8,01.16,0.508
2016-06-18 01:01:00,1988E-3,5C000400,-0724,0828,12173,028.2,045.4,0.255,758.9,01.16,0.508
2016-06-18 01:02:00,1919E-3,5C000400,-0724,0830,12095,028.2,045.4,0.255,758.9,01.16,0.508
2016-06-18 01:03:00,1950E-3,5C000400,-0724,0828,12137,028.2,045.4,0.255,758.9,01.16,0.508
2016-06-18 01:04:00,1936E-3,5C000400,-0724,0830,12204,028.2,045.4,0.255,758.9,01.16,0.508
2016-06-18 01:05:00,2057E-3,5C000400,-0724,0829,12192,028.3,045.4,0.255,758.8,01.16,0.508
2016-06-18 01:06:00,1940E-3,5C000400,-0724,0829,12201,028.3,045.4,0.254,758.9,01.16,0.508
2016-06-18 01:07:00,1932E-3,5C000400,-0724,0829,12171,028.3,045.4,0.255,758.9,01.16,0.508
2016-06-18 01:08:00,2135E-3,5C000400,-0724,0829,12229,028.3,045.4,0.254,758.8,01.16,0.508
2016-06-18 01:09:00,2027E-3,5C000400,-0724,0829,12276,028.3,045.4,0.255,758.9,01.16,0.508
2016-06-18 01:10:00,1971E-3,5C000400,-0724,0829,12306,028.3,045.4,0.254,758.8,01.16,0.508
2016-06-18 01:11:00,2080E-3,5C000400,-0724,0828,12324,028.3,045.4,0.255,758.8,01.16,0.508
2016-06-18 01:12:00,1935E-3,5C000400,-0724,0829,12248,028.3,045.4,0.255,758.8,01.16,0.508
2016-06-18 01:13:00,2089E-3,5C000400,-0724,0830,12215,028.3,045.4,0.255,758.8,01.16,0.508
2016-06-18 01:14:00,1930E-3,5C000400,-0724,0829,12166,028.3,045.4,0.255,758.8,01.16,0.508
2016-06-18 01:15:00,1946E-3,5C000400,-0724,0829,12207,028.3,045.4,0.255,758.8,01.16,0.508
2016-06-18 01:16:00,1914E-3,5C000400,-0724,0829,12193,028.3,045.5,0.255,758.8,01.16,0.508
2016-06-18 01:17:00,1887E-3,5C000400,-0724,0828,12073,028.3,045.4,0.254,758.8,01.16,0.508
2016-06-18 01:18:00,2084E-3,5C000400,-0724,0829,12323,028.3,045.4,0.255,758.8,01.16,0.508
2016-06-18 01:19:00,1945E-3,5C000400,-0724,0829,12027,028.3,045.4,0.254,758.8,01.16,0.508
2016-06-18 01:20:00,1863E-3,5C000400,-0724,0829,12100,028.4,045.5,0.255,758.8,01.16,0.508
2016-06-18 01:21:00,1978E-3,5C000400,-0724,0829,12266,028.4,045.5,0.254,758.7,01.16,0.508
2016-06-18 01:22:00,2027E-3,5C000400,-0724,0829,12115,028.4,045.4,0.255,758.8,01.16,0.508
2016-06-18 01:23:00,1994E-3,5C000400,-0724,0828,12132,028.4,045.4,0.254,758.8,01.16,0.508
2016-06-18 01:24:00,1786E-3,5C000400,-0724,0828,12211,028.4,045.4,0.255,758.8,01.16,0.508
2016-06-18 01:25:00,2109E-3,5C000400,-0724,0829,12306,028.4,045.4,0.254,758.9,01.16,0.508
2016-06-18 01:26:00,1993E-3,5C000400,-0724,0829,12186,028.4,045.4,0.255,758.8,01.16,0.508
2016-06-18 01:27:00,1915E-3,5C000400,-0724,0829,12220,028.4,045.4,0.254,758.8,01.16,0.508
2016-06-18 01:28:00,1902E-3,5C000400,-0724,0829,12173,028.4,045.4,0.254,758.9,01.16,0.508
2016-06-18 01:29:00,2032E-3,5C000400,-0724,0830,12143,028.4,045.4,0.254,758.8,01.16,0.508
2016-06-18 01:30:00,2109E-3,5C000400,-0724,0828,12153,028.4,045.4,0.254,758.8,01.16,0.508
2016-06-18 01:31:00,1907E-3,5C000400,-0724,0829,12326,028.4,045.4,0.254,758.9,01.16,0.508
2016-06-18 01:32:00,1989E-3,5C000400,-0724,0830,12272,028.5,045.4,0.254,758.8,01.16,0.508
2016-06-18 01:33:00,1966E-3,5C000400,-0724,0829,12179,028.4,045.4,0.254,758.8,01.16,0.508
2016-06-18 01:34:00,1935E-3,5C000400,-0724,0829,12244,028.4,045.4,0.254,758.9,01.16,0.508
2016-06-18 01:35:00,2023E-3,5C000400,-0724,0829,12102,028.5,045.4,0.254,758.8,01.16,0.508
2016-06-18 01:36:00,1943E-3,5C000400,-0724,0830,12244,028.5,045.4,0.254,758.9,01.16,0.508
2016-06-18 01:37:00,2079E-3,5C000400,-0724,0828,12156,028.5,045.4,0.254,758.9,01.16,0.508
2016-06-18 01:38:00,1991E-3,5C000400,-0724,0829,12297,028.5,045.5,0.254,758.9,01.16,0.508
2016-06-18 01:39:00,2070E-3,5C000400,-0724,0829,12113,028.5,045.4,0.254,758.9,01.16,0.508
2016-06-18 01:40:00,1982E-3,5C000400,-0724,0830,12143,028.5,045.4,0.254,758.9,01.16,0.508
2016-06-18 01:41:00,1959E-3,5C000400,-0724,0829,12254,028.5,045.5,0.254,758.8,01.16,0.508
2016-06-18 01:42:00,1914E-3,5C000400,-0724,0829,12204,028.5,045.4,0.254,758.9,01.16,0.508
2016-06-18 01:43:00,1918E-3,5C000400,-0724,0830,12235,028.5,045.5,0.254,758.9,01.16,0.508
2016-06-18 01:44:00,1963E-3,5C000400,-0724,0829,12146,028.5,045.4,0.254,758.8,01.16,0.508
2016-06-18 01:45:00,1931E-3,5C000400,-0724,0828,12211,028.5,045.5,0.254,758.8,01.16,0.508
2016-06-18 01:46:00,1903E-3,5C000400,-0724,0829,12138,028.5,045.5,0.254,758.9,01.16,0.508
2016-06-18 01:47:00,1937E-3,5C000400,-0724,0829,12316,028.6,045.4,0.254,758.8,01.16,0.508
2016-06-18 01:48:00,1991E-3,5C000400,-0724,0830,12315,028.6,045.4,0.255,758.8,01.16,0.508
2016-06-18 01:49:00,2053E-3,5C000400,-0724,0829,12240,028.6,045.5,0.254,758.8,01.16,0.508
2016-06-18 01:50:00,1980E-3,5C000400,-0724,0830,12183,028.6,045.5,0.255,758.8,01.16,0.508
2016-06-18 01:51:00,1963E-3,5C000400,-0724,0828,12150,028.6,045.4,0.254,758.8,01.16,0.508
2016-06-18 01:52:00,1963E-3,5C000400,-0724,0830,12126,028.6,045.4,0.254,758.8,01.16,0.508
2016-06-18 01:53:00,1952E-3,5C000400,-0724,0829,12273,028.6,045.4,0.254,758.8,01.16,0.508
2016-06-18 01:54:00,1977E-3,5C000400,-0724,0829,12246,028.6,045.4,0.254,758.9,01.16,0.508
2016-06-18 01:55:00,2021E-3,5C000400,-0724,0830,12202,028.6,045.5,0.254,758.9,01.16,0.508
2016-06-18 01:56:00,1967E-3,5C000400,-0724,0829,12082,028.6,045.5,0.254,758.9,01.16,0.508
2016-06-18 01:57:00,2023E-3,5C000400,-0724,0829,12273,028.6,045.5,0.254,758.8,01.16,0.508
2016-06-18 01:58:00,2017E-3,5C000400,-0724,0830,12199,028.6,045.4,0.254,758.9,01.16,0.508
2016-06-18 01:59:00,2033E-3,5C000400,-0724,0829,12073,028.6,045.4,0.254,758.9,01.16,0.508
2016-06-18 02:00:00,2073E-3,5C000400,-0724,0830,12058,028.6,045.5,0.254,758.8,01.16,0.508
2016-06-18 02:01:00,2061E-3,5C000400,-0724,0829,12242,028.6,045.4,0.254,758.9,01.16,0.508
2016-06-18 02:02:00,1808E-3,5C000400,-0724,0830,12178,028.7,045.4,0.254,758.8,01.16,0.508
2016-06-18 02:03:00,2072E-3,5C000400,-0724,0829,12152,028.7,045.4,0.254,759.0,01.16,0.508
2016-06-18 02:04:00,1931E-3,5C000400,-0724,0829,12061,028.7,045.5,0.254,758.9,01.16,0.508
2016-06-18 02:05:00,1876E-3,5C000400,-0724,0830,12148,028.7,045.4,0.254,758.9,01.16,0.508
2016-06-18 02:06:00,2065E-3,5C000400,-0724,0830,12264,028.7,045.4,0.254,758.9,01.16,0.508
2016-06-18 02:07:00,1957E-3,5C000400,-0724,0830,12152,028.7,045.5,0.254,758.9,01.16,0.508
2016-06-18 02:08:00,2147E-3,5C000400,-0724,0830,12198,028.7,045.4,0.254,758.9,01.16,0.508
2016-06-18 02:09:00,2005E-3,5C000400,-0724,0828,12345,028.7,045.4,0.253,759.0,01.16,0.508
2016-06-18 02:10:00,2030E-3,5C000400,-0724,0829,12206,028.7,045.5,0.254,759.0,01.16,0.508
2016-06-18 02:11:00,1928E-3,5C000400,-0724,0829,12272,028.7,045.5,0.253,759.0,01.16,0.508
2016-06-18 02:12:00,2020E-3,5C000400,-0724,0829,12277,028.7,045.4,0.254,759.0,01.16,0.508
2016-06-18 02:13:00,2013E-3,5C000400,-0724,0829,12229,028.7,045.4,0.254,759.0,01.16,0.508
2016-06-18 02:14:00,2066E-3,5C000400,-0724,0829,12165,028.7,045.4,0.254,759.0,01.16,0.508
2016-06-18 02:15:00,2118E-3,5C000400,-0724,0830,12153,028.7,045.4,0.253,759.0,01.16,0.508
2016-06-18 02:16:00,2081E-3,5C000400,-0724,0829,12054,028.7,045.4,0.254,759.0,01.16,0.508
2016-06-18 02:17:00,2224E-3,5C000400,-0724,0829,12247,028.7,045.5,0.253,759.0,01.16,0.508
2016-06-18 02:18:00,2064E-3,5C000400,-0724,0829,12245,028.7,045.5,0.254,759.0,01.16,0.508
2016-06-18 02:19:00,2117E-3,5C000400,-0724,0827,12298,028.7,045.5,0.253,759.0,01.16,0.508
2016-06-18 02:20:00,2104E-3,5C000400,-0724,0827,12216,028.7,045.4,0.254,758.9,01.16,0.508
2016-06-18 02:21:00,2002E-3,5C000400,-0724,0830,12433,028.8,045.5,0.253,759.0,01.16,0.508
2016-06-18 02:22:00,2005E-3,5C000400,-0724,0829,12225,028.8,045.4,0.254,758.9,01.16,0.508
2016-06-18 02:23:00,2049E-3,5C000400,-0724,0830,12121,028.8,045.4,0.253,759.0,01.16,0.508
2016-06-18 02:24:00,2040E-3,5C000400,-0724,0828,12254,028.8,045.4,0.254,759.0,01.16,0.508
2016-06-18 02:25:00,1977E-3,5C000400,-0724,0829,12211,028.8,045.5,0.254,758.9,01.16,0.508
2016-06-18 02:26:00,1974E-3,5C000400,-0724,0828,12261,028.8,045.5,0.254,759.0,01.16,0.508
2016-06-18 02:27:00,2154E-3,5C000400,-0724,0828,12273,028.8,045.5,0.254,758.9,01.16,0.508
2016-06-18 02:28:00,2076E-3,5C000400,-0724,0830,12184,028.8,045.5,0.254,758.9,01.16,0.508
2016-06-18 02:29:00,1943E-3,5C000400,-0724,0829,12205,028.8,045.4,0.254,759.0,01.16,0.508
2016-06-18 02:30:00,2030E-3,5C000400,-0724,0828,12149,028.9,045.5,0.254,759.0,01.16,0.508
2016-06-18 02:31:00,1981E-3,5C000400,-0724,0828,12198,028.8,045.5,0.254,759.0,01.16,0.508
2016-06-18 02:32:00,1822E-3,5C000400,-0724,0829,12300,028.8,045.5,0.254,758.9,01.16,0.508
2016-06-18 02:33:00,1967E-3,5C000400,-0724,0828,12272,028.8,045.5,0.254,758.9,01.16,0.508
2016-06-18 02:34:00,2079E-3,5C000400,-0724,0828,12109,028.9,045.5,0.254,758.9,01.16,0.508
2016-06-18 02:35:00,2004E-3,5C000400,-0724,0830,12248,028.9,045.5,0.254,759.0,01.16,0.508
2016-06-18 02:36:00,1913E-3,5C000400,-0724,0828,12137,028.9,045.5,0.254,758.9,01.16,0.508
2016-06-18 02:37:00,1959E-3,5C000400,-0724,0829,12275,028.9,045.5,0.254,758.9,01.16,0.508
2016-06-18 02:38:00,1949E-3,5C000400,-0724,0829,12205,028.9,045.5,0.254,758.9,01.16,0.508
2016-06-18 02:39:00,2066E-3,5C000400,-0724,0829,12221,028.9,045.5,0.254,759.0,01.16,0.508
2016-06-18 02:40:00,2119E-3,5C000400,-0724,0830,12072,028.9,045.4,0.254,758.9,01.16,0.508
2016-06-18 02:41:00,2029E-3,5C000400,-0724,0829,12158,028.9,045.5,0.254,759.0,01.16,0.508
2016-06-18 02:42:00,1935E-3,5C000400,-0724,0829,12267,028.9,045.5,0.254,759.0,01.16,0.508
2016-06-18 02:43:00,1980E-3,5C000400,-0724,0829,12295,028.9,045.5,0.254,758.9,01.16,0.508
2016-06-18 02:44:00,2110E-3,5C000400,-0724,0831,12228,028.9,045.5,0.254,759.0,01.16,0.508
2016-06-18 02:45:00,2187E-3,5C000400,-0724,0830,11218,028.9,045.5,0.254,758.9,01.16,0.508
2016-06-18 02:46:00,2023E-3,5C000400,-0724,0829,12150,029.0,045.4,0.253,759.0,01.16,0.508
2016-06-18 02:47:00,2064E-3,5C000400,-0724,0828,12164,029.0,045.5,0.254,758.9,01.16,0.508
2016-06-18 02:48:00,2063E-3,5C000400,-0724,0828,12210,029.0,045.5,0.254,758.9,01.16,0.508
2016-06-18 02:49:00,1944E-3,5C000400,-0724,0829,12339,029.0,045.5,0.253,758.9,01.16,0.508
2016-06-18 02:50:00,1935E-3,5C000400,-0724,0829,12153,029.0,045.4,0.254,758.9,01.16,0.508
2016-06-18 02:51:00,2164E-3,5C000400,-0724,0829,12088,029.0,045.5,0.253,759.0,01.16,0.508
2016-06-18 02:52:00,1999E-3,5C000400,-0724,0828,12252,029.0,045.4,0.254,759.0,01.16,0.508
2016-06-18 02:53:00,2045E-3,5C000400,-0724,0829,12252,029.0,045.5,0.253,758.9,01.16,0.508
2016-06-18 02:54:00,1906E-3,5C000400,-0724,0829,12223,029.0,045.5,0.254,759.0,01.16,0.508
2016-06-18 02:55:00,2093E-3,5C000400,-0724,0830,12037,029.0,045.5,0.253,759.0,01.16,0.508
2016-06-18 02:56:00,2124E-3,5C000400,-0724,0829,12295,029.0,045.5,0.254,759.0,01.16,0.508
2016-06-18 02:57:00,2164E-3,5C000400,-0724,0829,12231,029.0,045.5,0.253,759.0,01.16,0.508
2016-06-18 02:58:00,2027E-3,5C000400,-0724,0829,12126,029.1,045.5,0.253,758.9,01.16,0.508
2016-06-18 02:59:00,2093E-3,5C000400,-0724,0828,12185,029.1,045.5,0.253,758.9,01.16,0.508
2016-06-18 03:00:00,1987E-3,5C000400,-0724,0829,12269,029.1,045.5,0.253,759.0,01.16,0.508
2016-06-18 03:01:00,2044E-3,5C000400,-0724,0828,12128,029.1,045.5,0.253,759.0,01.16,0.508
2016-06-18 03:02:00,1982E-3,5C000400,-0724,0829,12100,029.0,045.5,0.253,758.9,01.16,0.508
2016-06-18 03:03:00,2042E-3,5C000400,-0724,0828,12176,029.1,045.5,0.253,759.0,01.16,0.508
2016-06-18 03:04:00,2116E-3,5C000400,-0724,0829,12135,029.1,045.5,0.253,759.0,01.16,0.508
2016-06-18 03:05:00,2121E-3,5C000400,-0724,0829,12291,029.1,045.5,0.253,758.9,01.16,0.508
2016-06-18 03:06:00,2109E-3,5C000400,-0724,0829,12134,029.1,045.5,0.253,758.9,01.16,0.508
2016-06-18 03:07:00,1970E-3,5C000400,-0724,0829,12310,029.1,045.5,0.253,758.9,01.16,0.508
2016-06-18 03:08:00,1938E-3,5C000400,-0724,0831,12106,029.1,045.5,0.253,758.9,01.16,0.508
2016-06-18 03:09:00,2004E-3,5C000400,-0724,0829,12296,029.1,045.5,0.253,758.9,01.16,0.508
2016-06-18 03:10:00,2017E-3,5C000400,-0724,0829,12293,029.1,045.5,0.253,759.0,01.16,0.508
2016-06-18 03:11:00,2131E-3,5C000400,-0724,0829,12141,029.2,045.5,0.253,758.9,01.16,0.508
2016-06-18 03:12:00,2042E-3,5C000400,-0724,0828,12076,029.2,045.5,0.253,759.0,01.16,0.508
2016-06-18 03:13:00,2118E-3,5C000400,-0724,0828,12352,029.1,045.5,0.253,759.0,01.16,0.508
2016-06-18 03:14:00,2017E-3,5C000400,-0724,0829,12130,029.2,045.5,0.253,758.9,01.16,0.508
2016-06-18 03:15:00,2051E-3,5C000400,-0724,0829,12060,029.2,045.5,0.253,759.0,01.16,0.508
2016-06-18 03:16:00,1944E-3,5C000400,-0724,0828,12269,029.2,045.5,0.253,759.0,01.16,0.508
2016-06-18 03:17:00,1984E-3,5C000400,-0724,0828,12230,029.2,045.5,0.253,759.0,01.16,0.508
2016-06-18 03:18:00,2150E-3,5C000400,-0724,0829,12167,029.2,045.5,0.253,759.0,01.16,0.508
2016-06-18 03:19:00,2128E-3,5C000400,-0724,0829,12212,029.2,045.5,0.253,759.0,01.16,0.508
2016-06-18 03:20:00,2007E-3,5C000400,-0724,0830,12311,029.2,045.5,0.253,759.0,01.16,0.508
2016-06-18 03:21:00,2153E-3,5C000400,-0724,0829,12014,029.2,045.4,0.253,759.0,01.16,0.508
2016-06-18 03:22:00,1960E-3,5C000400,-0724,0829,12263,029.2,045.5,0.253,759.0,01.16,0.508
2016-06-18 03:23:00,2112E-3,5C000400,-0724,0828,12211,029.2,045.5,0.253,759.0,01.16,0.508
2016-06-18 03:24:00,2075E-3,5C000400,-0724,0829,12159,029.2,045.5,0.253,759.0,01.16,0.508
2016-06-18 03:25:00,1912E-3,5C000400,-0724,0828,12229,029.2,045.5,0.253,759.0,01.16,0.508
2016-06-18 03:26:00,1913E-3,5C000400,-0724,0828,12087,029.2,045.5,0.253,759.0,01.16,0.508
2016-06-18 03:27:00,2092E-3,5C000400,-0724,0828,12231,029.3,045.5,0.253,758.9,01.16,0.508
2016-06-18 03:28:00,1981E-3,5C000400,-0724,0828,12227,029.2,045.5,0.253,759.0,01.16,0.508
2016-06-18 03:29:00,2043E-3,5C000400,-0724,0829,12206,029.2,045.5,0.253,758.9,01.16,0.508
2016-06-18 03:30:00,2072E-3,5C000400,-0724,0829,12262,029.3,045.5,0.253,759.0,01.16,0.508
2016-06-18 03:31:00,2030E-3,5C000400,-0724,0830,12244,029.3,045.5,0.253,758.9,01.16,0.508
2016-06-18 03:32:00,2046E-3,5C000400,-0724,0829,12191,029.3,045.5,0.253,759.0,01.16,0.508
2016-06-18 03:33:00,2034E-3,5C000400,-0724,0829,12217,029.3,045.5,0.252,759.0,01.16,0.508
2016-06-18 03:34:00,1928E-3,5C000400,-0724,0829,12312,029.3,045.5,0.253,759.0,01.16,0.508
2016-06-18 03:35:00,1965E-3,5C000400,-0724,0830,12283,029.3,045.5,0.252,759.0,01.16,0.508
2016-06-18 03:36:00,2039E-3,5C000400,-0724,0829,12212,029.3,045.5,0.253,758.9,01.16,0.508
2016-06-18 03:37:00,2063E-3,5C000400,-0724,0829,12165,029.3,045.5,0.253,758.9,01.16,0.508
2016-06-18 03:38:00,2090E-3,5C000400,-0724,0828,12171,029.3,045.5,0.253,758.9,01.16,0.508
2016-06-18 03:39:00,2027E-3,5C000400,-0724,0829,12278,029.4,045.5,0.253,758.9,01.16,0.508
2016-06-18 03:40:00,2113E-3,5C000400,-0724,0828,12250,029.4,045.5,0.253,759.0,01.16,0.508
2016-06-18 03:41:00,2253E-3,5C000400,-0724,0829,12178,029.4,045.5,0.253,759.0,01.16,0.508
2016-06-18 03:42:00,2036E-3,5C000400,-0724,0830,12126,029.4,045.5,0.253,759.0,01.16,0.508
2016-06-18 03:43:00,2156E-3,5C000400,-0724,0829,12199,029.4,045.5,0.253,759.0,01.16,0.508
2016-06-18 03:44:00,1956E-3,5C000400,-0724,0828,12270,029.4,045.4,0.252,759.0,01.16,0.508
2016-06-18 03:45:00,2074E-3,5C000400,-0724,0831,12278,029.4,045.5,0.253,758.9,01.16,0.508
2016-06-18 03:46:00,1960E-3,5C000400,-0724,0828,12272,029.4,045.5,0.252,759.0,01.16,0.508
2016-06-18 03:47:00,2043E-3,5C000400,-0724,0829,12245,029.4,045.5,0.253,758.9,01.16,0.508
2016-06-18 03:48:00,2054E-3,5C000400,-0724,0829,12201,029.4,045.5,0.253,758.9,01.16,0.508
2016-06-18 03:49:00,2070E-3,5C000400,-0724,0828,11990,029.4,045.5,0.253,758.9,01.16,0.508
2016-06-18 03:50:00,2149E-3,5C000400,-0724,0829,12101,029.4,045.5,0.253,758.9,01.16,0.508
2016-06-18 03:51:00,2098E-3,5C000400,-0724,0829,12216,029.5,045.5,0.252,758.9,01.16,0.508
2016-06-18 03:52:00,2065E-3,5C000400,-0724,0830,12130,029.5,045.5,0.253,759.0,01.16,0.508
2016-06-18 03:53:00,1980E-3,5C000400,-0724,0828,12321,029.5,045.5,0.252,759.0,01.16,0.508
2016-06-18 03:54:00,2128E-3,5C000400,-0724,0829,12245,029.5,045.5,0.253,759.0,01.16,0.508
2016-06-18 03:55:00,2044E-3,5C000400,-0724,0828,12193,029.5,045.5,0.252,759.0,01.16,0.508
2016-06-18 03:56:00,2024E-3,5C000400,-0724,0829,12222,029.5,045.5,0.253,759.0,01.16,0.508
2016-06-18 03:57:00,2060E-3,5C000400,-0724,0829,12197,029.5,045.5,0.252,759.0,01.16,0.508
2016-06-18 03:58:00,2080E-3,5C000400,-0724,0829,12321,029.5,045.5,0.253,759.0,01.16,0.508
2016-06-18 03:59:00,1984E-3,5C000400,-0724,0829,12259,029.5,045.5,0.252,758.9,01.16,0.508
2016-06-18 04:00:00,2083E-3,5C000400,-0724,0829,12341,029.5,045.5,0.252,759.0,01.16,0.508
2016-06-18 04:01:00,1951E-3,5C000400,-0724,0829,12218,029.5,045.5,0.252,759.0,01.16,0.508
2016-06-18 04:02:00,1959E-3,5C000400,-0724,0829,12273,029.5,045.5,0.252,759.0,01.16,0.508
2016-06-18 04:03:00,1834E-3,5C000400,-0724,0829,12147,029.6,045.5,0.253,759.0,01.16,0.508
2016-06-18 04:04:00,2089E-3,5C000400,-0724,0829,12248,029.6,045.5,0.252,759.0,01.16,0.508
2016-06-18 04:05:00,1975E-3,5C000400,-0724,0829,12231,029.6,045.5,0.253,759.0,01.16,0.508
2016-06-18 04:06:00,2134E-3,5C000400,-0724,0829,12121,029.6,045.5,0.252,759.0,01.16,0.508
2016-06-18 04:07:00,2021E-3,5C000400,-0724,0830,12122,029.6,045.5,0.252,759.0,01.16,0.508
2016-06-18 04:08:00,2076E-3,5C000400,-0724,0830,12288,029.5,045.5,0.252,759.0,01.16,0.508
2016-06-18 04:09:00,2070E-3,5C000400,-0724,0829,12204,029.6,045.5,0.252,759.0,01.16,0.508
2016-06-18 04:10:00,1932E-3,5C000400,-0724,0829,12301,029.6,045.5,0.252,759.0,01.16,0.508
2016-06-18 04:11:00,1978E-3,5C000400,-0724,0830,12258,029.6,045.5,0.252,759.0,01.16,0.508
2016-06-18 04:12:00,2098E-3,5C000400,-0724,0829,12071,029.6,045.5,0.252,759.0,01.16,0.508
2016-06-18 04:13:00,2028E-3,5C000400,-0724,0830,12050,029.6,045.5,0.252,759.0,01.16,0.508
2016-06-18 04:14:00,1878E-3,5C000400,-0724,0829,12133,029.6,045.5,0.252,759.0,01.16,0.508
2016-06-18 04:15:00,1987E-3,5C000400,-0724,0829,12238,029.6,045.5,0.252,758.9,01.16,0.508
2016-06-18 04:16:00,2072E-3,5C000400,-0724,0829,12164,029.6,045.5,0.252,759.0,01.16,0.508
2016-06-18 04:17:00,1951E-3,5C000400,-0724,0830,12069,029.7,045.5,0.252,759.0,01.16,0.508
2016-06-18 04:18:00,1900E-3,5C000400,-0724,0828,12079,029.7,045.5,0.252,759.0,01.16,0.508
2016-06-18 04:19:00,1943E-3,5C000400,-0724,0829,12129,029.7,045.5,0.252,759.0,01.16,0.508
2016-06-18 04:20:00,2015E-3,5C000400,-0724,0828,12298,029.7,045.5,0.252,759.0,01.16,0.508